Regional Weather Roundup
Issued by NWS

Home | Current Version | Previous Version | Text Only | Print | Product List | Glossary On
Versions: 1 2 3 4 5 6 7 8 9 10 11 12 13 14 15 16 17 18 19 20 21 22 23 24 25 26 27 28 29 30 31 32 33 34 35 36 37 38 39 40 41 42 43 44 45 46 47 48 49 50
000
ASUS44 KBMX 281110
RWRAL

ALABAMA REGIONAL WEATHER ROUNDUP
NATIONAL WEATHER SERVICE BIRMINGHAM AL
600 AM CDT TUE APR 28 2015

NOTE: "FAIR" INDICATES FEW OR NO CLOUDS BELOW 12,000 FEET
WITH NO SIGNIFICANT WEATHER AND/OR OBSTRUCTIONS TO VISIBILITY.

THE REMARK "TC" DENOTES TEMPERATURE IN DEGREES CELSIUS.

ALZ001>011-014-016>018-020-281200-
NORTH ALABAMA

CITY           SKY/WX    TMP DP  RH WIND       PRES   REMARKS
MUSCLE SHOALS  PTCLDY    48  39  71 NE5       29.93F
HUNTSVILLE     PTCLDY    49  40  71 NE6       29.91F
DECATUR        CLEAR     46  40  79 N7        29.92F
HALEYVILLE       N/A     45  41  86 MISG      29.92F
GADSDEN        PTCLDY    45  39  81 N7        29.89R
$$

ALZ012-013-022-023-030>036-040>044-281200-
WEST CENTRAL ALABAMA

CITY           SKY/WX    TMP DP  RH WIND       PRES   REMARKS
TUSCALOOSA     CLEAR     49  44  83 CALM      29.88R
$$

ALZ015-024>027-033>036-040>044-281200-
CENTRAL ALABAMA

CITY           SKY/WX    TMP DP  RH WIND       PRES   REMARKS
BIRMINGHAM     PTCLDY    49  42  77 CALM      29.89S
MONTGOMERY     CLOUDY    57  48  72 NE5       29.85R
SHELBY CO ARPT PTCLDY    54  40  59 E5        29.87R
MAXWELL AFB    CLOUDY    56  47  74 N5        29.84R
GREENVILLE     FAIR      58  45  62 NE6       29.82S
$$

ALZ019-021-028-029-037-038-045>048-281200-
EAST CENTRAL ALABAMA

CITY           SKY/WX    TMP DP  RH WIND       PRES   REMARKS
ANNISTON       PTCLDY    50  43  77 E5        29.89R
ALEXANDER CITY CLOUDY    54  41  61 CALM      29.87R
AUBURN         CLOUDY    54  39  58 NE9       29.87R
$$

ALZ051>064-281200-
SOUTHWEST ALABAMA

CITY           SKY/WX    TMP DP  RH WIND       PRES   REMARKS
MOBILE         CLOUDY    60  57  89 N5        29.81R
BROOKLEY FIELD CLOUDY    63  58  83 N6        29.80R
EVERGREEN      CLOUDY    60  47  61 NE5       29.82R
$$

ALZ049-050-065>069-281200-
SOUTHEAST ALABAMA

CITY           SKY/WX    TMP DP  RH WIND       PRES   REMARKS
DOTHAN         CLOUDY    61  50  67 E6        29.86R
OZARK          CLOUDY    60  47  64 NE8       29.82R
TROY           CLOUDY    57  46  66 NE3       29.84S
EUFAULA        CLOUDY    60  47  61 CALM      29.85R
$$



USA.gov is the U.S. government's official web portal to all federal, state and local government web resources and services.